COSMOS 249 DEB, 3911

Orbit data source: Space-Track

COSMOS 249 DEB, 3911 is space debris in LEO originally from a launch on Sun, 20 Oct 1968 UTC launched from the Tyuratam Missile And Space Complex (TTMTR). Debris objects in space refer to the collection of defunct objects orbiting the Earth. Examples of debris include non-operational satellites, rocket bodies, and fragments generated from explosions, collisions, or faulty payload assembly.

Loading next visibility...
Identifier
3911, 1968-091BP
Orbit
LEO
Country
Flag of CISCIS
Related business
Manufacturer
Unknown
Mission
Spacecraft
Bus & Motor
Unknown
Mass
Unknown
Launch date (UTC)
1968-10-20 (58 years ago)
Launch vehicle
Unknown
Launch site
Tyuratam Missile And Space Complex (TTMTR)
Object type
Payload
Rocket body
Debris
Shape & HBR
Unknown shape, 0.1 m
Radar Cross Section
Medium (>0.1 m² and <1 m²)

Expand to show TLE details & history
Last TLE update: 2 days ago

TLE from 2 days ago
0 COSMOS 249 DEB
1 03911U 68091BP  26172.74330882  .00003645  00000-0  92516-3 0  9995
2 03911  62.9191  85.7409 0792457  82.8455 286.1899 13.42873108667934
Epoch: 2026-06-21T17:50Z
TLE epoch observation values (Epoch: 2026-06-21T17:50:21.882Z)
Latitude
-0.00005°
Longitude
-91.7895°
Altitude
979.712 km
Speed
7.421 km/s
True Right ascension
05h 42m 57s
True Declination
0° 00' 00"
Sunlit
Object was in daylight at epoch
Visualization orbit readout
Latitude
Unknown
Longitude
Unknown
Altitude
Unknown
Speed
Unknown
Apparent Right ascension
Unknown
Apparent Declination
Unknown
Sunlit
N/A
Visualization observer readout
Local Sidereal Time
14:46:47
Azimuth
Unknown
Elevation
Unknown
Doppler factor
Unknown
Orbital elements
Apogee altitude
1,689.886 km
Perigee altitude
505.066 km
Semi-major axis
7,475.613 km
Eccentricity
0.07925
Inclination
62.9191°
RAAN
85.7409°
Arg. of periapsis
82.8455°
True anomaly
277.25815°
Mean anomaly
286.1899°
Eccentric anomaly
281.74451°
Mean motion
3.35794 °/min
Orbital period
107.21 mins
BSTAR
0.00092516
Loading maneuver chart data...
Computing Atmospheric mass density...

Documentation

Showing up to 5 results
|